STARLINK-1917, 46767

Orbit data source: Space-Track

STARLINK-1917, 46767 is a payload satellite owned by SpaceX/Seattle (US) in LEO that was launched on Sat, 24 Oct 2020 UTC via an FALCON 9 launch vehicle from the Air Force Eastern Test Range (AFETR). Payloads include a variety of satellites, spacecraft, and rockets equipped with specific instruments for various scientific and technological missions. These include communications satellites like Starlink; space stations such as the ISS; scientific satellites like the Hubble; Earth observation satellites from companies like Planet Labs, Umbra, and HawkEye 360; GPS; miniature CubeSats for education and research; and military/defense satellites.

Loading next visibility...
STARLINK-1917 details
Identifier
46767, 2020-074AE
Orbit
LEO
Last TLE update12 hours ago
Origin
Flag of USSpaceX/Seattle (US)
ManufacturerSpaceX/Seattle
MissionPartially operational Commercial Communications
Bus & MotorSTARLINK, Unknown motor
Mass260 kg wet, ~248 kg dry
Launch date (UTC)
2020-10-24 (4 years ago)
Launch vehicle
FALCON 9
Launch site
Air Force Eastern Test Range (AFETR)
Object type
Payload
Rocket body
Debris
Shape & HBRBox + 1 Pan, 8.86 m
Radar Cross Section13.562 m², Large (>1 m²)

Expand to show TLE details & history

TLE from 12 hours ago
0 STARLINK-1917
1 46767U 20074AE  25045.07031979  .00980209  50900-3  14981-2 0  9995
2 46767  53.0452 246.6122 0007923 218.6574 277.9602 16.03830990238384
Epoch: 2025-02-14T01:41Z
Definitive object data (Epoch: 2025-02-14T01:41:15.629Z)
Latitude33.46343°
Longitude-132.67259°
Altitude265.374 km
Speed7.753 km/s
True Right ascension02h 27m 55s
True Declination33° 17' 37"
Sunlit
Object was in daylight at TLE epoch
Visualization TLE readout
Latitude-33.93995°
Longitude-75.48497°
Altitude266.573 km
Speed7.75 km/s
Apparent Right ascension05h 31m 02s
Apparent Declination-37° 18' 25"
Sunlit
Object is in full shadow
Visualization observer readout
Local Sidereal Time16:39:33
Azimuth280.454° WNW
Elevation-79.619°
Doppler factor1
Orbital elements
Apogee altitude269.367 km
Perigee altitude258.842 km
Semi-major axis6,642.241 km
Eccentricity0.0007923
Inclination53.0452°
RAAN246.6122°
Arg. of periapsis218.6574°
True anomaly277.87027°
Mean anomaly277.9602°
Eccentric anomaly277.91524°
Mean motion4.00932 °/min
BSTAR0.0014981
Orbital period89.79 mins
Loading maneuver chart data...

STARLINK-1917 Visibility forecast

Observer location: undefined°, undefined

Span
Click to sort rows by Start time (UTC) header in descending order
Start Az.
Max El. time (UTC)
Max El. Az.
Max El.
End time (UTC)
End Az.
4 mins2025-02-14 16:15:39.001Z236.998° WSW2025-02-14 16:17:39.001Z295.141° NW42.434°2025-02-14 16:19:39.001Z44.304° NE
|